User: anonymous   Login
Location: Unspecified
(0.0000°N, 0.0000°E)
Time: 21:56:45
(UTC+00:00)
Language:

TBA - TO BE ASSIGNED - Orbit

View from above orbital plane
View from above orbital plane
View from above satellite
View from above satellite

Ground track
Ground track

The orbit is defined by the following mean orbital elements,

1 67497U          26145.54696025 +.00000000 +00000-0 +48031-3 0 00000
2 67497  42.9991 240.5785 0001377 269.3882  90.6812 15.27595780    01
Epoch (UTC): 25 May 2026 13:07:37
Eccentricity: 0.0001377
inclination: 42.9991°
perigee height: 482 km
apogee height: 484 km
right ascension of ascending node: 240.5785°
argument of perigee: 269.3882°
revolutions per day: 15.27595780
mean anomaly at epoch: 90.6812°

The dashed part of the orbit path shows where the satellite is in the earth's shadow,  

DLR